Wind_Speed
72 77 79 75 76 76 76 76 78 78 76 79 83 86 81 75 73 72 72 71 69 68 60 61 58 56 58 57 58 59 59 57 58 57 57 56 53 52 54 53 53 53 51 47
74 74 73 73 73 73 76 76 77 76 75 78 81 87 82 79 79 76 73 73 73 73 69 65 63 60 58 57 57 59 60 59 58 57 56 57 54 55 57 58 57 53 49 48
68 70 70 74 73 71 74 76 73 75 72 73 78 85 81 80 78 80 79 74 73 74 72 70 67 63 61 60 57 56 57 58 57 58 58 56 56 55 55 55 53 51 52 54
58 58 61 65 74 72 76 70 68 71 72 76 75 83 79 77 76 74 78 78 74 72 74 70 71 68 64 61 57 56 55 55 56 58 58 57 54 54 54 55 56 56 57 55
41 39 40 53 65 65 71 65 70 68 72 74 75 77 85 77 80 75 77 77 78 74 71 72 71 70 67 64 63 59 56 55 56 58 58 59 58 57 55 55 56 57 56 55
26 19 29 29 42 55 61 63 63 64 66 74 76 71 80 78 77 78 74 70 74 76 74 71 67 70 72 70 67 63 61 57 57 58 59 60 60 57 57 57 57 58 57 55
14 14 21 25 28 40 59 59 50 54 59 68 68 66 76 73 71 70 70 71 70 73 76 73 70 69 73 67 70 68 67 62 60 58 60 60 59 59 60 60 60 60 58 56
14 10 17 18 25 32 48 56 50 45 48 49 52 61 68 64 62 63 62 65 65 68 72 75 73 72 68 71 70 67 68 69 64 62 62 61 60 59 60 61 61 60 58 57
14 11 16 20 24 31 49 67 55 52 42 32 45 54 55 58 58 55 55 55 57 61 64 71 73 72 70 68 74 74 66 68 66 65 67 64 63 62 62 62 63 62 61 61
14 16 13 5 8 34 38 46 60 55 45 31 52 49 44 42 37 36 36 41 44 45 54 63 68 70 67 64 65 67 72 63 63 71 65 66 65 66 67 67 67 66 66 65
15 19 12 4 3 16 36 31 47 46 56 43 18 26 28 32 30 24 26 33 38 41 44 51 61 60 63 64 64 65 63 68 70 52 65 70 67 69 72 70 71 72 70 68
13 13 10 4 4 9 17 35 38 46 49 32 39 29 29 34 38 36 36 33 31 35 42 45 47 54 59 61 65 62 60 59 62 67 54 56 69 75 76 72 74 73 73 71
13 8 8 0 1 7 11 16 25 32 30 38 33 32 21 21 20 23 25 30 27 24 31 45 47 53 52 59 60 61 60 58 59 61 65 70 63 56 61 56 65 72 73 70
11 6 6 2 3 2 11 16 17 21 22 24 32 34 35 36 35 33 34 33 34 33 31 32 36 47 56 58 59 65 65 62 60 60 64 62 64 64 65 61 59 53 52 55
11 10 4 3 3 4 5 15 18 17 18 21 23 29 33 43 42 44 45 47 45 41 40 34 35 42 45 51 58 62 62 61 63 65 64 64 66 65 65 64 63 60 59 59
9 12 5 5 3 5 4 10 13 11 17 13 21 18 20 26 33 36 37 42 42 35 31 31 32 44 46 41 42 48 58 64 63 63 67 68 66 66 70 74 73 70 65 65
6 9 11 4 2 6 5 7 8 9 10 13 17 22 25 27 29 30 29 28 30 30 32 29 35 31 38 48 42 41 45 47 56 70 67 68 70 69 66 68 72 73 73 72
10 8 11 5 4 6 6 3 4 5 4 7 11 15 15 18 23 27 27 27 29 32 32 33 28 38 39 31 33 32 45 37 46 46 57 64 65 66 70 70 68 68 65 66
14 11 11 6 4 4 2 2 4 3 6 8 10 11 16 14 11 14 15 17 19 23 29 37 36 32 34 28 31 33 33 33 29 40 33 34 43 46 52 61 64 66 61 57
11 9 12 12 8 4 4 5 10 11 10 14 13 14 14 16 14 11 13 16 15 15 15 22 28 34 38 38 32 31 30 32 30 29 27 25 29 37 46 48 44 43 45 46
5 8 11 12 11 11 12 16 18 17 17 19 16 14 15 16 16 16 17 18 17 16 16 16 19 24 31 36 35 32 30 31 30 33 31 28 31 36 31 37 37 35 35 35
1 6 11 14 13 14 15 18 20 20 21 20 17 18 18 17 19 20 21 22 22 19 17 17 18 18 20 22 29 31 29 28 27 25 27 31 34 38 36 36 39 39 36 36
5 1 1 6 8 12 15 15 16 17 18 19 21 20 20 19 18 19 20 20 22 22 21 20 20 19 20 23 24 24 27 28 30 30 31 30 31 35 38 40 42 42 39 38
8 6 4 2 2 6 10 13 13 14 17 19 21 20 20 20 20 20 20 20 20 21 21 23 23 21 21 22 23 25 27 29 31 32 32 34 35 37 38 39 39 40 39 38
8 7 6 5 4 5 7 9 10 12 13 16 18 20 21 21 21 22 22 22 21 20 21 22 23 24 24 24 25 26 28 30 32 34 36 38 39 40 41 42 42 42 43 43
9 9 11 12 12 13 14 16 17 18 18 20 19 18 20 21 22 22 24 25 25 25 24 24 24 24 25 27 28 28 29 31 35 37 38 40 41 42 43 44 47 47 46 46
Wind_Direction
246 246 248 249 250 252 251 250 247 243 246 246 247 245 246 243 240 239 237 236 239 240 236 238 237 236 239 238 238 239 240 238 239 239 241 243 243 243 244 243 243 244 247 251
248 245 247 247 244 244 245 247 247 246 244 245 245 244 245 244 240 238 237 236 237 240 237 236 238 237 238 240 238 239 241 242 241 240 240 241 243 242 242 243 244 248 252 254
252 246 241 240 240 240 241 242 244 247 249 249 250 246 243 243 243 239 237 235 237 239 239 237 236 239 238 237 240 241 241 243 243 244 243 241 241 242 244 246 247 248 248 249
256 247 245 239 240 240 242 243 243 244 244 246 249 253 248 244 244 243 240 239 237 240 242 240 239 238 239 240 240 241 241 240 239 241 243 245 244 242 242 243 245 246 249 252
258 258 262 252 240 236 240 240 241 238 242 245 246 249 247 246 245 243 243 240 239 239 241 243 242 240 239 239 239 239 238 239 240 240 241 242 242 243 242 243 245 248 250 252
264 278 281 277 250 238 235 234 237 240 241 242 243 249 246 249 248 248 246 245 243 242 240 241 241 243 241 238 237 236 237 237 238 240 241 240 241 242 244 244 245 247 248 250
247 283 277 283 265 238 226 224 235 240 240 244 243 248 250 250 251 251 250 247 244 242 241 241 241 241 245 241 239 238 236 235 236 237 240 241 242 242 243 245 247 248 249 251
278 268 279 287 282 247 222 210 220 226 237 243 246 248 248 253 257 251 248 247 246 244 243 242 242 241 241 248 243 237 238 239 234 233 235 238 240 242 243 244 246 248 249 250
279 270 303 305 297 224 211 207 217 223 231 240 243 248 252 248 253 257 255 252 248 244 239 237 239 240 241 242 248 249 239 237 238 237 234 236 236 240 242 244 246 248 249 250
273 282 308 10 308 211 204 213 222 233 229 250 252 253 259 256 261 256 253 249 245 248 241 236 236 239 240 239 245 246 251 242 242 240 237 235 234 236 239 243 245 247 249 251
291 298 302 204 222 261 222 220 213 221 225 242 253 245 254 244 247 238 242 239 239 242 243 239 236 236 236 237 238 243 245 252 247 248 243 240 236 235 237 239 243 245 248 251
309 308 318 70 223 219 261 233 227 220 219 238 244 242 249 249 241 245 246 250 249 243 240 232 231 233 237 236 235 236 241 242 247 251 242 246 244 243 245 247 243 245 248 251
288 278 309 204 268 216 204 238 249 254 244 237 232 219 208 221 233 237 233 241 236 247 247 244 235 233 230 231 234 235 237 239 242 243 249 251 249 244 240 242 246 247 249 252
279 307 332 29 34 32 156 209 217 246 247 258 246 248 246 246 249 250 251 256 252 258 269 267 247 238 237 232 230 231 232 235 237 239 240 243 250 256 260 260 260 259 254 255
298 270 260 104 348 60 173 184 209 222 242 256 252 258 262 259 266 266 265 259 270 268 273 272 252 238 235 235 236 236 234 235 236 237 237 239 243 245 248 254 256 256 253 255
290 253 267 120 112 102 99 200 204 234 225 261 240 255 255 255 251 248 249 258 263 266 261 252 250 238 235 237 244 240 236 236 239 238 239 240 240 243 245 248 248 250 253 254
268 267 252 120 132 140 128 140 200 232 229 248 241 258 260 256 251 253 250 250 258 259 249 247 246 241 238 238 244 242 246 243 242 237 237 239 240 242 243 246 248 250 252 255
233 229 253 182 169 141 199 206 223 238 236 239 239 260 270 272 269 264 265 269 263 258 240 243 242 239 247 255 244 240 243 236 236 241 243 247 249 247 246 247 251 254 258 256
200 204 226 260 217 183 186 234 320 285 269 259 254 269 269 280 286 260 260 259 258 254 238 239 249 250 240 248 250 251 253 258 238 231 229 231 239 239 244 247 252 251 251 255
207 203 205 241 255 243 266 297 296 294 301 299 289 288 289 284 280 283 274 275 261 257 254 244 245 247 243 252 247 246 248 251 250 241 242 242 238 244 241 238 240 248 252 256
240 246 217 236 246 248 268 283 294 295 294 285 286 284 275 274 275 279 282 283 283 279 272 263 254 248 243 243 243 243 246 244 238 235 236 240 247 253 257 255 252 252 257 256
280 255 248 248 254 262 266 272 280 283 278 278 274 272 274 282 283 283 278 281 288 284 277 270 262 257 248 243 238 240 241 241 237 235 242 241 243 244 246 251 254 253 246 253
26 23 299 242 256 266 273 274 267 270 280 281 284 286 285 281 284 287 288 285 282 283 283 279 273 266 255 247 246 246 248 249 244 241 241 240 241 241 244 248 251 251 257 253
354 356 3 329 284 264 264 267 273 274 272 275 276 282 284 283 280 281 283 281 280 281 281 278 276 270 266 258 249 250 251 252 251 246 244 245 245 248 253 256 259 259 259 261
322 330 339 343 324 310 296 303 308 305 297 289 287 283 280 280 280 280 280 284 283 279 278 277 274 274 271 265 262 257 252 252 252 252 252 252 250 250 252 256 259 262 262 264
296 299 303 307 313 314 314 312 310 305 302 297 295 290 287 285 284 284 284 281 279 280 276 274 274 270 269 267 263 260 258 257 256 256 257 258 259 259 259 260 263 265 268 270
Height
5459 5464 5472 5490 5495 5501 5506 5507 5517 5530 5538 5539 5542 5555 5561 5572 5583 5590 5599 5606 5611 5619 5630 5634 5640 5645 5648 5655 5658 5664 5670 5674 5679 5684 5687 5692 5697 5702 5705 5708 5710 5713 5717 5722
5442 5445 5472 5466 5469 5476 5484 5489 5497 5512 5515 5520 5526 5534 5539 5546 5562 5572 5580 5591 5598 5603 5612 5619 5625 5631 5636 5642 5648 5651 5657 5663 5668 5671 5675 5680 5686 5689 5692 5695 5699 5705 5710 5713
5418 5437 5432 5438 5446 5454 5463 5472 5487 5494 5506 5509 5504 5507 5519 5530 5540 5554 5563 5575 5582 5588 5596 5603 5610 5617 5623 5627 5634 5641 5648 5651 5656 5659 5662 5667 5671 5677 5683 5688 5692 5695 5696 5697
5396 5412 5416 5422 5425 5440 5443 5465 5475 5479 5482 5482 5490 5483 5499 5519 5525 5533 5551 5561 5571 5576 5582 5590 5595 5601 5609 5616 5622 5627 5632 5638 5642 5645 5651 5656 5662 5665 5669 5673 5676 5679 5682 5687
5392 5401 5402 5401 5413 5424 5429 5452 5453 5461 5463 5467 5466 5466 5483 5498 5504 5519 5535 5546 5554 5562 5570 5575 5579 5584 5591 5596 5603 5609 5615 5622 5628 5633 5638 5642 5646 5651 5655 5659 5663 5666 5670 5674
5389 5396 5392 5396 5400 5405 5424 5428 5437 5445 5448 5437 5451 5457 5467 5477 5497 5508 5521 5532 5544 5550 5553 5559 5564 5566 5571 5578 5585 5593 5600 5607 5613 5619 5623 5629 5634 5640 5643 5646 5650 5653 5656 5660
5386 5389 5388 5385 5387 5392 5403 5417 5426 5430 5427 5424 5449 5444 5451 5470 5482 5497 5509 5517 5524 5528 5535 5542 5548 5553 5556 5564 5569 5577 5583 5590 5597 5604 5609 5616 5622 5627 5630 5634 5637 5640 5644 5648
5384 5386 5384 5381 5380 5383 5392 5405 5415 5422 5422 5427 5436 5428 5439 5469 5472 5477 5487 5497 5504 5514 5521 5527 5532 5535 5542 5547 5554 5561 5569 5574 5581 5587 5593 5600 5606 5611 5615 5619 5623 5628 5632 5635
5382 5381 5379 5375 5371 5370 5380 5388 5406 5410 5413 5420 5423 5429 5441 5453 5459 5468 5476 5483 5490 5493 5500 5504 5508 5516 5527 5531 5538 5545 5553 5561 5568 5573 5578 5584 5590 5596 5601 5605 5609 5613 5617 5621
5381 5375 5376 5374 5370 5372 5380 5393 5398 5402 5413 5415 5418 5425 5436 5449 5452 5455 5459 5464 5469 5473 5479 5486 5493 5502 5510 5518 5521 5529 5538 5546 5554 5560 5564 5570 5575 5580 5585 5590 5595 5599 5602 5606
5378 5376 5376 5374 5374 5376 5380 5385 5394 5402 5409 5411 5415 5421 5433 5438 5440 5443 5446 5449 5455 5461 5466 5472 5478 5484 5493 5502 5509 5514 5522 5531 5539 5544 5549 5556 5559 5563 5569 5574 5579 5583 5587 5592
5378 5376 5372 5372 5374 5376 5379 5384 5389 5394 5403 5407 5411 5420 5424 5426 5429 5431 5434 5439 5443 5449 5453 5459 5464 5470 5479 5486 5495 5501 5507 5515 5522 5529 5534 5538 5543 5549 5555 5560 5563 5567 5571 5575
5378 5379 5373 5375 5376 5374 5376 5380 5385 5389 5395 5401 5406 5417 5417 5418 5421 5424 5428 5433 5436 5440 5444 5448 5452 5458 5464 5472 5479 5487 5494 5500 5506 5512 5519 5523 5529 5535 5538 5543 5548 5552 5555 5559
5378 5378 5377 5376 5377 5376 5376 5378 5384 5388 5393 5398 5404 5406 5409 5412 5415 5419 5422 5426 5430 5433 5437 5440 5443 5446 5451 5457 5463 5472 5479 5485 5492 5497 5503 5508 5513 5517 5521 5526 5531 5536 5539 5542
5377 5377 5377 5377 5377 5377 5377 5378 5383 5387 5391 5394 5397 5399 5402 5405 5408 5410 5414 5418 5422 5424 5426 5430 5434 5436 5439 5444 5450 5457 5463 5469 5476 5482 5487 5493 5498 5503 5508 5512 5516 5520 5524 5527
5375 5376 5377 5377 5377 5377 5379 5380 5383 5385 5388 5389 5392 5394 5397 5399 5401 5402 5404 5409 5413 5416 5417 5420 5423 5426 5430 5434 5438 5443 5448 5453 5460 5466 5472 5478 5482 5488 5493 5498 5502 5506 5509 5512
5374 5374 5376 5376 5377 5377 5379 5379 5381 5383 5385 5387 5389 5391 5392 5393 5394 5396 5398 5400 5403 5405 5410 5412 5415 5418 5421 5427 5431 5432 5437 5441 5445 5451 5456 5462 5467 5472 5477 5482 5486 5491 5494 5497
5371 5373 5375 5376 5377 5378 5379 5379 5381 5383 5383 5385 5386 5387 5388 5389 5388 5389 5391 5393 5395 5397 5399 5404 5407 5411 5413 5416 5418 5421 5425 5429 5434 5439 5444 5449 5453 5458 5463 5467 5472 5476 5479 5480
5368 5371 5374 5375 5377 5378 5379 5380 5381 5381 5384 5384 5384 5384 5385 5385 5384 5385 5385 5387 5388 5388 5390 5395 5399 5402 5404 5406 5409 5412 5417 5420 5423 5429 5432 5434 5439 5445 5449 5454 5457 5461 5463 5465
5368 5371 5374 5375 5376 5377 5378 5380 5380 5381 5381 5382 5382 5382 5382 5381 5381 5381 5382 5382 5383 5384 5385 5386 5389 5392 5395 5398 5400 5403 5406 5409 5414 5418 5421 5422 5426 5432 5435 5439 5442 5444 5445 5448
5371 5371 5373 5374 5375 5377 5376 5377 5378 5379 5382 5380 5380 5379 5379 5378 5378 5377 5377 5378 5378 5378 5379 5380 5381 5382 5385 5388 5391 5393 5397 5401 5404 5407 5409 5412 5416 5421 5422 5425 5428 5431 5433 5437
5372 5372 5373 5373 5373 5374 5374 5376 5378 5378 5376 5377 5377 5376 5375 5374 5373 5373 5373 5372 5372 5373 5373 5374 5375 5376 5377 5378 5381 5384 5387 5390 5393 5395 5399 5403 5407 5410 5414 5416 5419 5422 5423 5426
5375 5374 5373 5373 5372 5371 5371 5372 5373 5373 5372 5372 5373 5372 5370 5370 5369 5368 5367 5367 5368 5368 5367 5368 5369 5369 5370 5371 5373 5374 5376 5378 5383 5386 5389 5393 5397 5401 5404 5406 5409 5411 5412 5414
5375 5373 5372 5371 5370 5370 5370 5371 5369 5369 5370 5369 5369 5367 5366 5365 5365 5364 5363 5363 5362 5362 5361 5361 5362 5363 5364 5364 5365 5367 5369 5371 5373 5376 5378 5382 5386 5388 5391 5394 5397 5399 5399 5400
5374 5373 5371 5370 5370 5369 5368 5367 5366 5365 5365 5364 5363 5361 5361 5360 5359 5358 5357 5357 5356 5356 5355 5356 5356 5355 5356 5357 5358 5360 5361 5362 5364 5367 5370 5373 5376 5378 5380 5381 5383 5385 5386 5387
5372 5371 5370 5369 5368 5367 5366 5364 5363 5362 5360 5359 5359 5357 5356 5354 5353 5352 5351 5350 5350 5350 5350 5350 5349 5348 5349 5349 5350 5351 5352 5354 5355 5357 5358 5359 5361 5362 5364 5366 5368 5369 5371 5372